Location: Franzen
(48.6167°N, 15.3833°E)
Time: 13:04:57
(UTC+00:00)

Cosmos 2344 - Pass Details

Date: 22 April 2021
Orbit: 1240 x 3002 km, 63.3° (Epoch: 16 May)

Event Time Altitude Azimuth Distance (km) Brightness Sun altitude
Rises 19:57:25 0° 241° (WSW) 4,219 6.5 -17.2°
Reaches altitude 10° 20:00:13 10° 246° (WSW) 3,214 6.0 -17.5°
Maximum altitude 20:07:27 54° 324° (NW) 1,522 4.3 -18.3°
Drops below altitude 10° 20:15:36 10° 41° (NE) 3,599 6.0 -19.3°
Sets 20:18:57 0° 46° (NE) 4,769 6.6 -19.6°
